Theta_e
305 305 305 305 305 305 305 306 305 304 304 304 305 307 307 308 311 313 316 318 317 315 314 311 311 313 315 318 321 320 317 317 322 326 325 324 323 322 324 322 321 323 323 321 322 323 324
304 305 305 304 305 305 305 305 304 304 304 304 304 306 307 308 308 311 314 316 317 315 314 311 310 312 315 318 314 316 315 317 320 324 325 323 323 322 323 322 322 322 322 322 322 322 322
305 305 306 305 304 303 304 304 304 304 304 304 304 304 306 307 308 309 311 315 316 315 314 311 309 314 314 314 311 313 314 318 321 322 324 323 322 321 322 323 321 321 323 322 322 321 321
305 308 305 304 304 305 305 304 304 304 304 303 303 304 305 306 307 309 310 314 317 314 313 313 309 312 314 311 312 311 313 317 320 322 322 321 320 321 321 319 320 321 322 324 321 320 320
307 304 304 305 304 304 304 304 304 303 303 303 303 303 304 306 307 308 309 312 315 313 313 313 312 312 315 308 309 310 312 316 317 319 321 321 320 321 321 322 323 322 324 323 322 320 320
305 305 305 305 305 304 304 304 303 303 303 302 303 303 304 304 305 306 308 309 314 314 313 313 312 313 312 313 310 310 311 315 316 316 319 319 319 320 321 323 326 324 323 322 321 320 319
303 305 304 303 305 304 304 303 303 303 302 303 303 303 303 304 305 305 307 310 314 315 314 315 314 313 313 311 310 310 311 314 315 316 317 316 318 319 319 318 319 318 319 320 319 318 318
305 304 305 304 304 304 304 303 303 302 302 302 302 303 304 304 304 305 305 308 309 310 314 312 312 312 312 311 313 311 311 314 316 318 316 317 319 317 316 316 317 318 319 319 318 316 316
304 305 303 304 303 303 303 302 302 302 302 301 302 303 304 304 304 305 305 305 307 309 314 313 312 313 313 312 314 313 312 313 315 316 316 319 316 313 315 316 317 317 317 317 317 316 315
303 301 302 302 302 302 301 302 302 302 302 301 302 303 303 302 303 305 305 305 307 308 315 313 313 312 313 313 315 312 312 313 314 316 316 317 315 313 314 316 315 317 314 314 314 316 318
301 302 302 301 301 301 301 301 301 301 301 301 302 303 304 304 305 306 306 305 308 308 322 313 312 311 313 313 314 314 311 313 314 314 314 317 314 315 315 314 313 315 313 314 314 316 316
301 301 302 301 301 301 301 301 301 301 301 301 302 303 304 304 306 305 306 308 306 310 321 314 312 312 313 312 314 313 313 312 312 313 313 315 312 313 314 313 313 313 313 313 313 314 319
300 302 302 301 301 301 301 301 300 300 301 301 302 303 304 306 306 306 305 307 310 316 312 314 313 313 313 312 314 315 314 314 316 317 316 315 314 312 312 314 313 313 315 319 321 319 318
301 301 301 301 300 300 300 301 300 300 300 301 302 302 306 306 306 306 302 308 317 315 313 311 313 314 314 312 314 314 315 315 313 314 316 316 320 315 313 314 315 313 315 318 319 315 316
301 301 301 300 300 300 300 300 300 299 300 302 301 304 307 306 306 302 305 312 319 314 312 312 313 316 315 313 314 315 315 314 313 313 317 317 316 312 313 313 312 314 315 313 315 314 316
301 301 300 300 300 300 300 300 299 299 301 302 303 305 306 306 306 305 309 315 312 311 311 312 314 312 314 314 315 314 314 313 313 313 313 315 318 312 313 312 313 314 313 315 317 317 317
301 300 300 300 300 300 300 300 298 300 302 302 304 306 306 307 306 307 312 315 312 311 311 313 313 312 312 312 313 313 314 313 313 313 312 313 313 313 312 313 314 314 315 314 314 316 318
300 300 300 300 300 300 300 300 298 300 302 304 304 306 306 304 308 306 312 313 311 311 312 313 313 313 313 313 313 314 315 313 312 312 313 312 314 314 313 311 311 312 313 313 316 316 316
300 300 300 299 300 300 299 299 299 301 303 306 303 306 306 307 312 310 311 313 312 313 314 314 315 313 313 314 315 314 313 311 311 312 313 312 313 315 316 314 312 313 312 313 314 316 319
300 300 300 300 300 299 299 299 299 300 303 304 304 308 307 309 310 312 314 314 314 313 314 314 315 314 314 315 314 314 313 312 310 311 312 312 313 314 317 319 316 319 315 315 316 318 317
299 300 299 299 299 299 299 299 298 300 303 305 309 309 308 311 311 312 313 313 314 314 314 314 314 315 315 316 315 315 314 313 312 311 311 312 315 313 314 314 314 317 317 318 318 317 318
299 299 298 298 300 299 299 299 298 300 302 304 307 310 310 310 310 312 312 314 314 314 314 315 315 314 314 315 315 315 314 313 313 312 312 312 315 317 314 314 316 319 318 319 320 320 319
299 299 299 299 299 299 299 299 298 299 302 303 303 305 310 310 311 312 312 313 314 313 313 313 313 314 314 313 313 312 312 313 313 314 313 314 315 315 317 316 317 324 324 322 321 320 320
299 299 299 299 299 299 298 299 297 299 301 302 302 304 310 312 310 312 311 312 313 313 315 313 313 313 314 313 313 313 313 312 313 313 313 315 314 314 321 318 327 323 319 319 318 319 318
298 298 298 299 299 298 298 298 297 298 301 301 301 303 308 313 311 310 311 312 312 313 314 314 313 313 313 314 316 316 317 316 316 314 314 313 314 319 319 319 319 321 319 318 319 321 317
297 297 297 298 298 298 298 297 297 297 299 300 301 302 306 312 312 310 312 311 313 313 314 314 313 312 313 315 316 319 316 315 318 319 314 314 314 318 317 321 322 320 318 315 318 324 316
297 296 296 297 297 297 297 296 296 297 299 299 301 301 303 311 312 312 312 313 313 314 316 315 314 315 313 315 318 319 318 316 320 321 321 318 317 318 318 320 320 318 317 315 322 320 315
296 296 295 295 295 295 295 295 296 297 297 298 299 301 301 305 312 312 313 314 314 315 315 314 313 312 313 316 317 316 316 317 317 318 320 320 321 321 320 323 324 316 319 322 319 315 314
296 296 295 295 295 295 294 295 296 296 296 297 299 298 299 303 313 311 312 311 312 312 314 313 314 313 313 314 314 316 317 318 318 319 317 321 318 324 322 322 319 319 318 315 312 312 312
Wind_Speed
18 18 20 21 22 21 22 23 23 23 22 23 24 24 23 23 23 21 17 21 16 13 11 9 7 5 6 7 8 7 5 4 10 19 19 14 13 14 13 12 8 13 16 11 13 14 14
18 18 19 23 24 23 23 24 24 23 23 23 24 23 25 22 23 23 18 17 17 15 12 10 8 6 9 12 2 3 3 3 11 18 18 12 5 7 7 9 10 2 10 14 14 15 15
18 19 21 23 23 24 24 24 26 25 25 24 24 24 25 22 22 22 22 15 20 17 14 10 9 8 9 7 3 4 5 3 4 11 13 14 8 6 4 5 9 8 13 15 19 19 15
20 21 23 23 22 23 22 24 26 26 27 26 24 24 25 24 21 20 21 15 25 21 16 12 10 8 6 2 6 4 7 5 6 9 7 9 6 1 4 2 4 8 11 13 3 6 9
22 23 24 23 24 25 26 26 27 25 27 27 26 24 23 22 20 19 21 15 19 22 17 13 9 7 4 4 6 10 9 9 9 9 8 11 9 3 3 8 10 12 9 14 10 7 7
23 24 25 26 26 27 26 26 27 26 26 24 25 23 21 19 19 16 19 18 13 22 19 11 4 4 6 6 8 9 11 11 11 12 9 7 7 8 10 11 9 12 15 13 11 5 8
24 26 27 29 27 29 28 27 27 26 26 23 24 22 19 20 19 18 17 8 5 7 12 6 11 2 11 11 11 10 14 15 10 12 7 9 8 13 16 15 16 9 9 12 10 8 15
25 27 29 30 29 30 29 26 27 26 27 26 23 19 21 21 18 17 16 4 7 6 7 8 11 8 10 12 7 11 17 12 12 13 9 5 14 15 10 9 12 13 14 15 14 13 12
27 27 30 31 31 30 27 27 27 27 25 26 23 22 25 20 24 21 18 16 20 11 3 13 12 12 8 9 8 15 17 12 15 16 16 11 1 4 12 10 11 13 14 13 14 16 18
28 30 31 32 33 30 29 28 27 27 27 25 23 25 22 30 26 20 20 13 16 8 3 10 9 7 9 7 6 16 19 9 6 14 12 12 8 4 8 12 11 11 9 10 11 9 6
28 28 30 30 31 30 29 27 26 25 28 25 26 29 24 21 10 10 4 19 18 1 6 15 11 10 15 11 15 12 17 5 10 8 8 4 6 12 12 12 8 6 3 5 8 10 14
30 29 29 30 29 29 28 26 25 27 27 26 28 32 31 24 12 16 4 25 14 3 4 7 7 13 17 14 8 11 13 4 4 7 11 11 3 5 6 5 8 4 3 6 7 6 8
30 32 31 29 28 28 27 26 25 26 28 27 32 38 31 12 7 17 13 10 5 6 11 9 9 14 17 15 11 13 13 10 8 6 9 10 16 7 8 6 5 8 1 2 4 5 8
29 30 30 28 27 27 26 26 27 28 27 31 34 38 7 9 6 20 3 5 8 8 8 8 15 18 10 17 9 14 15 11 13 12 3 7 6 17 11 12 5 12 8 4 5 7 11
28 30 29 27 27 27 27 27 29 29 29 34 38 12 1 9 12 22 4 4 1 13 11 13 17 6 7 17 7 10 13 11 11 13 6 5 3 1 9 7 10 6 8 10 11 16 11
27 28 27 27 27 27 27 28 31 27 31 34 20 6 2 13 19 13 1 1 2 7 15 17 6 7 9 15 9 11 13 10 8 15 11 2 2 5 7 5 10 12 0 2 4 5 10
27 26 27 26 27 26 27 28 31 28 33 35 6 2 4 14 18 2 2 2 6 15 12 4 9 10 11 15 10 14 14 4 14 11 13 5 3 5 5 11 13 11 9 7 8 7 6
26 27 25 25 27 26 28 30 32 30 36 21 1 2 10 26 3 1 1 3 14 12 1 2 7 7 16 17 10 10 8 1 5 8 10 9 2 5 12 8 8 14 14 17 7 9 8
25 26 26 25 26 26 28 30 33 34 39 5 2 2 1 6 3 1 2 7 7 5 1 3 5 2 7 14 6 7 4 6 8 11 9 10 5 3 2 1 8 10 15 18 17 16 20
26 27 25 25 25 26 28 30 33 37 36 5 2 2 2 1 1 4 4 6 6 3 7 8 9 12 11 12 5 7 5 4 7 9 8 4 5 8 8 10 9 6 15 16 13 8 20
25 25 26 24 24 25 26 28 32 37 32 7 1 3 1 3 3 5 5 5 5 4 3 4 4 5 5 4 5 4 5 6 7 6 6 5 7 13 18 20 19 17 21 22 19 21 15
22 23 23 23 23 23 25 27 29 32 29 8 3 2 2 2 4 7 2 9 9 2 2 3 5 6 3 3 2 5 7 5 4 7 8 4 3 2 14 18 14 16 20 18 18 18 15
22 22 22 22 21 22 23 24 27 28 29 5 6 4 4 3 6 5 6 10 8 6 4 6 6 5 1 2 1 2 2 1 3 8 11 5 2 2 5 10 19 9 4 9 12 12 7
22 22 21 20 19 18 20 21 23 23 24 12 4 3 3 2 5 7 6 6 7 5 5 5 3 1 4 5 3 2 5 7 9 10 8 6 4 2 5 12 3 1 3 10 7 7 10
20 20 22 20 18 17 17 19 21 20 22 19 6 2 2 2 5 7 4 7 5 5 2 3 4 5 4 2 1 2 3 3 11 18 17 13 5 2 3 6 16 5 9 7 2 4 8
18 18 19 18 17 17 17 19 20 20 22 23 4 11 3 3 5 5 5 7 6 6 3 3 5 4 3 0 1 3 3 3 3 3 6 13 10 3 3 5 4 6 12 5 5 1 2
17 17 17 17 17 16 17 18 19 20 21 21 5 13 4 3 2 3 8 7 3 4 2 2 3 2 4 3 2 3 3 0 3 4 5 4 3 6 7 4 8 9 11 3 6 6 9
15 16 16 16 16 16 16 16 16 17 18 19 9 5 6 3 1 2 3 1 3 4 3 4 2 1 3 3 3 3 5 3 3 2 5 7 6 4 4 5 6 6 8 5 8 9 7
14 15 15 16 16 16 16 15 16 16 17 16 4 14 14 3 4 3 4 2 2 3 3 6 0 3 2 3 3 4 4 3 5 2 3 4 6 2 7 4 9 10 8 7 5 9 5
Wind_Direction
354 353 353 349 346 346 342 339 340 339 334 333 323 321 319 312 319 318 296 238 219 221 223 224 215 214 216 216 249 151 157 218 210 197 206 194 210 211 221 209 198 232 254 245 268 264 261
345 344 342 343 339 338 337 335 333 330 329 327 324 321 317 312 308 313 305 258 216 211 208 213 205 194 233 227 121 146 191 200 209 202 202 209 232 243 275 226 215 345 264 270 259 260 256
339 333 338 337 336 332 330 327 327 325 325 323 320 316 320 313 307 304 305 281 220 206 199 200 194 194 234 219 140 180 195 185 204 191 197 202 231 191 178 256 243 269 263 262 251 245 240
332 336 332 329 325 327 323 323 323 320 322 320 319 315 312 312 307 304 301 278 226 200 188 186 182 195 246 204 197 176 183 164 165 173 204 145 104 178 278 101 213 233 240 257 179 227 239
328 330 328 325 326 327 324 323 322 320 318 318 316 313 308 313 309 307 305 276 258 189 176 174 177 213 227 157 189 184 181 175 148 150 159 162 138 210 197 232 232 217 253 221 236 205 250
328 326 323 324 323 322 323 322 320 320 316 315 314 309 302 308 310 303 312 286 280 169 165 167 175 202 190 191 151 158 175 171 155 144 134 160 188 204 208 212 222 237 218 244 261 168 230
329 326 323 323 324 322 321 322 321 318 315 316 314 311 314 315 311 323 324 310 221 180 183 180 182 132 133 120 136 163 165 174 170 176 180 193 208 215 221 224 257 281 291 282 277 280 279
329 324 326 326 323 322 322 323 319 317 316 320 317 302 315 303 303 305 306 267 270 352 173 232 168 104 135 154 135 154 165 174 188 193 174 171 231 233 238 256 244 253 261 264 277 281 291
326 327 327 324 326 326 327 323 318 317 319 321 317 316 309 301 292 288 258 245 241 327 239 184 169 166 157 183 164 167 188 202 195 205 195 212 112 262 226 221 234 241 257 272 283 306 294
334 328 329 328 328 328 327 322 322 321 321 319 316 318 307 312 291 257 248 246 236 256 216 157 191 201 164 180 172 162 191 178 198 213 198 234 213 198 204 225 224 260 267 279 283 290 278
335 330 329 332 330 330 327 326 324 324 321 317 317 320 315 304 304 242 270 189 179 221 204 143 144 150 169 177 124 177 184 193 202 201 172 217 218 215 226 227 211 242 24 282 290 288 309
333 328 330 332 333 330 330 328 326 324 321 317 318 317 312 304 247 226 230 146 117 239 183 135 132 171 163 183 147 144 173 231 280 218 222 259 134 225 215 202 221 67 269 274 269 270 258
330 332 331 331 334 333 333 331 329 327 324 320 321 319 312 261 222 179 171 119 167 246 161 142 161 163 162 172 155 164 172 185 181 171 215 229 230 198 232 223 201 208 202 271 220 208 248
333 337 338 338 336 337 336 336 334 331 328 325 324 323 287 203 203 162 85 124 233 132 142 159 141 151 168 161 182 177 175 195 214 224 162 201 187 200 171 216 198 208 203 233 272 257 303
335 339 342 343 340 340 339 339 337 333 333 332 329 319 255 178 156 146 166 169 231 147 134 142 135 133 135 171 158 171 195 195 212 206 208 182 243 208 175 193 206 171 211 243 280 281 276
338 340 343 346 344 342 343 341 342 338 335 333 327 301 39 155 148 129 137 221 16 112 139 142 126 181 159 172 162 176 180 204 201 207 219 24 248 179 172 214 226 219 358 170 205 263 267
338 341 343 347 346 346 345 344 344 340 334 328 303 342 52 143 138 64 204 65 107 132 134 182 155 157 172 168 183 179 183 124 196 188 194 186 214 143 155 209 204 201 232 230 283 238 275
341 342 343 345 348 348 347 347 346 341 333 327 168 81 118 133 86 114 183 88 133 134 111 125 137 150 152 165 166 173 175 99 189 186 183 192 184 248 243 238 223 233 220 226 233 235 235
341 342 345 347 348 348 350 350 347 344 347 4 60 59 167 227 132 227 271 101 123 148 62 142 125 128 141 155 154 176 189 107 168 179 175 167 208 283 167 152 239 232 248 252 249 264 255
340 344 346 346 348 350 354 352 350 351 358 46 154 94 39 325 289 151 94 86 110 45 68 90 107 127 126 146 78 160 162 143 174 200 73 218 222 240 276 317 327 229 252 252 245 257 268
342 345 346 348 350 351 355 357 355 357 5 2 342 67 160 164 166 153 132 132 119 142 97 110 107 133 121 136 155 179 165 137 158 177 183 202 255 259 265 277 284 280 279 278 268 259 256
342 343 344 346 350 352 356 358 2 3 14 35 20 345 254 134 166 161 152 154 175 113 132 122 130 139 104 94 54 170 171 181 201 172 186 230 264 281 283 264 264 278 278 279 271 269 267
336 340 340 342 350 353 358 0 3 8 14 3 334 309 294 323 171 158 195 169 176 155 51 63 114 141 121 15 284 109 203 249 249 178 196 209 213 277 273 325 308 278 242 279 297 292 276
339 345 342 341 347 355 359 1 4 8 9 348 309 307 306 164 200 203 179 171 176 204 116 105 116 127 63 69 69 186 198 228 260 241 228 201 176 243 294 312 267 21 335 285 261 288 337
342 347 344 342 347 355 359 0 1 3 3 359 323 287 299 271 191 211 200 200 155 135 157 135 112 86 86 85 351 220 188 234 228 228 229 222 203 269 276 303 279 287 21 331 302 293 320
341 345 346 346 349 351 358 358 358 360 360 358 33 1 291 296 216 183 189 188 191 206 165 129 85 98 92 225 211 253 222 235 153 138 238 223 225 195 321 296 291 344 13 18 150 343 58
337 341 341 344 348 351 352 353 354 359 1 359 325 348 291 281 68 193 196 187 174 172 81 100 140 169 172 183 234 244 249 344 220 188 155 160 170 215 229 256 275 295 331 111 313 349 352
332 332 334 337 337 337 341 344 349 354 356 358 314 334 346 323 311 300 342 163 152 212 160 136 129 105 159 210 225 238 260 222 243 195 174 183 180 190 185 223 266 10 315 350 337 312 328
327 323 330 334 332 334 336 336 338 345 347 354 324 320 328 226 321 306 304 306 35 7 118 174 289 144 182 216 214 264 239 240 251 236 200 226 214 183 204 234 312 315 297 326 343 304 337